Time,TemperatureF,DewpointF,PressureIn,WindDirection,WindDirectionDegrees,WindSpeedMPH,WindSpeedGustMPH,Humidity,HourlyPrecipIn,Conditions,Clouds,dailyrainin,SoftwareType,DateUTC
2013-03-08 00:03:00,24.4,19.2,30.27,North,0,0.0,-999.0,80,-99.99,,,0.00,Acu-Link.com,2013-03-08 05:03:00,
2013-03-08 00:18:00,24.8,19.5,30.28,North,0,2.2,-999.0,80,-99.99,,,0.00,Acu-Link.com,2013-03-08 05:18:00,
2013-03-08 00:33:00,24.6,19.1,30.28,NNE,22,1.6,-999.0,79,-99.99,,,0.00,Acu-Link.com,2013-03-08 05:33:00,
2013-03-08 00:48:00,24.8,19.2,30.27,NE,45,1.6,-999.0,79,-99.99,,,0.00,Acu-Link.com,2013-03-08 05:48:00,
2013-03-08 01:04:00,24.8,19.2,30.28,NNE,22,1.6,-999.0,79,-99.99,,,0.00,Acu-Link.com,2013-03-08 06:04:00,
2013-03-08 01:19:00,25.2,19.3,30.28,East,90,2.7,-999.0,78,-99.99,,,0.00,Acu-Link.com,2013-03-08 06:19:00,
2013-03-08 01:34:00,25.2,19.0,30.29,NE,45,5.1,-999.0,77,-99.99,,,0.00,Acu-Link.com,2013-03-08 06:34:00,
2013-03-08 01:49:00,25.5,19.0,30.29,ESE,112,2.2,-999.0,76,-99.99,,,0.00,Acu-Link.com,2013-03-08 06:49:00,
2013-03-08 02:04:00,25.5,19.0,30.29,ENE,67,4.7,-999.0,76,-99.99,,,0.00,Acu-Link.com,2013-03-08 07:04:00,
2013-03-08 02:20:00,25.3,18.9,30.29,ENE,67,3.1,-999.0,76,-99.99,,,0.00,Acu-Link.com,2013-03-08 07:20:00,
2013-03-08 02:35:00,25.5,19.0,30.29,ENE,67,2.7,-999.0,76,-99.99,,,0.00,Acu-Link.com,2013-03-08 07:35:00,
2013-03-08 02:50:00,25.5,19.0,30.29,North,0,2.2,-999.0,76,-99.99,,,0.00,Acu-Link.com,2013-03-08 07:50:00,
2013-03-08 03:05:00,25.7,19.5,30.29,ESE,112,2.7,-999.0,77,-99.99,,,0.00,Acu-Link.com,2013-03-08 08:05:00,
2013-03-08 03:20:00,25.7,19.5,30.29,East,90,3.1,-999.0,77,-99.99,,,0.00,Acu-Link.com,2013-03-08 08:20:00,
2013-03-08 03:36:00,25.5,20.2,30.29,North,0,0.0,-999.0,80,-99.99,,,0.00,Acu-Link.com,2013-03-08 08:36:00,
2013-03-08 03:51:00,25.2,19.9,30.29,North,0,0.0,-999.0,80,-99.99,,,0.00,Acu-Link.com,2013-03-08 08:51:00,
2013-03-08 04:06:00,25.2,20.2,30.29,North,0,0.0,-999.0,81,-99.99,,,0.00,Acu-Link.com,2013-03-08 09:06:00,
2013-03-08 04:21:00,24.6,19.9,30.29,North,0,0.0,-999.0,82,-99.99,,,0.00,Acu-Link.com,2013-03-08 09:21:00,
2013-03-08 04:36:00,23.5,18.9,30.29,North,0,0.0,-999.0,82,-99.99,,,0.00,Acu-Link.com,2013-03-08 09:36:00,
2013-03-08 04:52:00,22.6,18.8,30.29,North,0,0.0,-999.0,85,-99.99,,,0.00,Acu-Link.com,2013-03-08 09:52:00,
2013-03-08 05:07:00,21.7,18.7,30.29,North,0,0.0,-999.0,88,-99.99,,,0.00,Acu-Link.com,2013-03-08 10:07:00,
2013-03-08 05:22:00,21.0,19.3,30.29,North,0,0.0,-999.0,93,-99.99,,,0.00,Acu-Link.com,2013-03-08 10:22:00,
2013-03-08 05:37:00,21.2,19.5,30.30,North,0,0.0,-999.0,93,-99.99,,,0.00,Acu-Link.com,2013-03-08 10:37:00,
2013-03-08 05:52:00,21.2,18.5,30.30,North,0,2.2,-999.0,89,-99.99,,,0.00,Acu-Link.com,2013-03-08 10:52:00,
2013-03-08 06:08:00,21.6,18.3,30.30,North,0,0.0,-999.0,87,-99.99,,,0.00,Acu-Link.com,2013-03-08 11:08:00,
2013-03-08 06:23:00,20.5,17.8,30.30,North,0,0.0,-999.0,89,-99.99,,,0.00,Acu-Link.com,2013-03-08 11:23:00,
2013-03-08 06:38:00,20.8,17.9,30.31,North,0,0.0,-999.0,88,-99.99,,,0.00,Acu-Link.com,2013-03-08 11:38:00,
2013-03-08 06:53:00,20.7,18.2,30.32,North,0,0.0,-999.0,90,-99.99,,,0.00,Acu-Link.com,2013-03-08 11:53:00,
2013-03-08 07:08:00,21.4,18.1,30.33,North,0,1.1,-999.0,87,-99.99,,,0.00,Acu-Link.com,2013-03-08 12:08:00,
2013-03-08 07:24:00,22.1,17.7,30.33,North,0,1.6,-999.0,83,-99.99,,,0.00,Acu-Link.com,2013-03-08 12:24:00,
2013-03-08 07:39:00,23.0,17.8,30.33,SW,225,0.0,-999.0,80,-99.99,,,0.00,Acu-Link.com,2013-03-08 12:39:00,
2013-03-08 07:54:00,23.9,17.8,30.34,East,90,2.2,-999.0,77,-99.99,,,0.00,Acu-Link.com,2013-03-08 12:54:00,
2013-03-08 08:09:00,25.0,18.2,30.33,East,90,3.1,-999.0,75,-99.99,,,0.00,Acu-Link.com,2013-03-08 13:09:00,
2013-03-08 08:24:00,25.9,18.4,30.33,North,0,2.7,-999.0,73,-99.99,,,0.00,Acu-Link.com,2013-03-08 13:24:00,
2013-03-08 08:40:00,26.2,18.5,30.34,North,0,2.7,-999.0,72,-99.99,,,0.00,Acu-Link.com,2013-03-08 13:40:00,
2013-03-08 08:55:00,27.0,18.5,30.35,ESE,112,4.3,-999.0,70,-99.99,,,0.00,Acu-Link.com,2013-03-08 13:55:00,
2013-03-08 09:10:00,27.7,18.9,30.35,North,0,3.1,-999.0,69,-99.99,,,0.00,Acu-Link.com,2013-03-08 14:10:00,
2013-03-08 09:25:00,27.7,18.9,30.35,East,90,3.1,-999.0,69,-99.99,,,0.00,Acu-Link.com,2013-03-08 14:25:00,
2013-03-08 09:40:00,29.1,19.6,30.36,ESE,112,1.6,-999.0,67,-99.99,,,0.00,Acu-Link.com,2013-03-08 14:40:00,
2013-03-08 09:56:00,30.6,19.9,30.36,ESE,112,4.7,-999.0,64,-99.99,,,0.00,Acu-Link.com,2013-03-08 14:56:00,
2013-03-08 10:11:00,32.2,20.3,30.36,East,90,4.3,-999.0,61,-99.99,,,0.00,Acu-Link.com,2013-03-08 15:11:00,
2013-03-08 10:26:00,33.3,20.1,30.36,East,90,4.3,-999.0,58,-99.99,,,0.00,Acu-Link.com,2013-03-08 15:26:00,
2013-03-08 10:41:00,34.2,20.1,30.36,ESE,112,0.0,-999.0,56,-99.99,,,0.00,Acu-Link.com,2013-03-08 15:41:00,
2013-03-08 10:56:00,36.3,21.7,30.36,ENE,67,3.8,-999.0,55,-99.99,,,0.00,Acu-Link.com,2013-03-08 15:56:00,
2013-03-08 11:11:00,37.2,20.8,30.36,ENE,67,2.2,-999.0,51,-99.99,,,0.00,Acu-Link.com,2013-03-08 16:11:00,
2013-03-08 11:27:00,37.4,20.5,30.35,ESE,112,3.1,-999.0,50,-99.99,,,0.00,Acu-Link.com,2013-03-08 16:27:00,
2013-03-08 11:42:00,39.6,21.5,30.34,East,90,1.6,-999.0,48,-99.99,,,0.00,Acu-Link.com,2013-03-08 16:42:00,
2013-03-08 11:57:00,39.0,21.0,30.35,North,0,2.7,-999.0,48,-99.99,,,0.00,Acu-Link.com,2013-03-08 16:57:00,
2013-03-08 12:12:00,40.6,19.9,30.34,ESE,112,2.7,-999.0,43,-99.99,,,0.00,Acu-Link.com,2013-03-08 17:12:00,
2013-03-08 12:28:00,41.0,20.2,30.34,SSE,157,3.1,-999.0,43,-99.99,,,0.00,Acu-Link.com,2013-03-08 17:28:00,
2013-03-08 12:43:00,41.7,20.3,30.33,East,90,4.3,-999.0,42,-99.99,,,0.00,Acu-Link.com,2013-03-08 17:43:00,
2013-03-08 12:58:00,42.8,21.3,30.33,North,0,0.0,-999.0,42,-99.99,,,0.00,Acu-Link.com,2013-03-08 17:58:00,
2013-03-08 13:13:00,44.2,19.6,30.32,North,0,1.1,-999.0,37,-99.99,,,0.00,Acu-Link.com,2013-03-08 18:13:00,
2013-03-08 13:28:00,43.2,19.3,30.32,SSW,202,0.0,-999.0,38,-99.99,,,0.00,Acu-Link.com,2013-03-08 18:28:00,
2013-03-08 13:44:00,42.3,19.7,30.32,North,0,1.6,-999.0,40,-99.99,,,0.00,Acu-Link.com,2013-03-08 18:44:00,
2013-03-08 13:59:00,43.9,18.7,30.32,NE,45,3.1,-999.0,36,-99.99,,,0.00,Acu-Link.com,2013-03-08 18:59:00,
2013-03-08 14:14:00,43.5,19.0,30.33,ENE,67,3.8,-999.0,37,-99.99,,,0.00,Acu-Link.com,2013-03-08 19:14:00,
2013-03-08 14:29:00,42.1,18.9,30.32,ENE,67,2.2,-999.0,39,-99.99,,,0.00,Acu-Link.com,2013-03-08 19:29:00,
2013-03-08 14:44:00,44.4,17.8,30.33,SW,225,2.2,-999.0,34,-99.99,,,0.00,Acu-Link.com,2013-03-08 19:44:00,
2013-03-08 15:00:00,43.9,18.7,30.32,NE,45,2.7,-999.0,36,-99.99,,,0.00,Acu-Link.com,2013-03-08 20:00:00,
2013-03-08 15:15:00,44.8,18.1,30.33,North,0,0.0,-999.0,34,-99.99,,,0.00,Acu-Link.com,2013-03-08 20:15:00,
2013-03-08 15:30:00,43.7,19.2,30.33,ESE,112,0.0,-999.0,37,-99.99,,,0.00,Acu-Link.com,2013-03-08 20:30:00,
2013-03-08 15:45:00,44.8,18.8,30.32,ESE,112,0.0,-999.0,35,-99.99,,,0.00,Acu-Link.com,2013-03-08 20:45:00,
2013-03-08 16:00:00,43.7,17.9,30.33,NNW,337,0.0,-999.0,35,-99.99,,,0.00,Acu-Link.com,2013-03-08 21:00:00,
2013-03-08 16:16:00,43.5,19.0,30.33,North,0,0.0,-999.0,37,-99.99,,,0.00,Acu-Link.com,2013-03-08 21:16:00,
2013-03-08 16:31:00,41.9,20.5,30.33,North,0,1.1,-999.0,42,-99.99,,,0.00,Acu-Link.com,2013-03-08 21:31:00,
2013-03-08 16:46:00,40.8,22.2,30.33,North,0,0.0,-999.0,47,-99.99,,,0.00,Acu-Link.com,2013-03-08 21:46:00,
2013-03-08 17:01:00,39.9,22.8,30.34,North,0,0.0,-999.0,50,-99.99,,,0.00,Acu-Link.com,2013-03-08 22:01:00,
2013-03-08 17:16:00,39.0,22.9,30.34,North,0,0.0,-999.0,52,-99.99,,,0.00,Acu-Link.com,2013-03-08 22:16:00,
2013-03-08 17:32:00,37.2,23.0,30.35,North,0,0.0,-999.0,56,-99.99,,,0.00,Acu-Link.com,2013-03-08 22:32:00,
2013-03-08 17:47:00,36.1,22.4,30.35,North,0,0.0,-999.0,57,-99.99,,,0.00,Acu-Link.com,2013-03-08 22:47:00,
2013-03-08 18:02:00,35.1,22.2,30.36,North,0,0.0,-999.0,59,-99.99,,,0.00,Acu-Link.com,2013-03-08 23:02:00,
2013-03-08 18:17:00,33.8,22.6,30.36,North,0,0.0,-999.0,63,-99.99,,,0.00,Acu-Link.com,2013-03-08 23:17:00,
2013-03-08 18:32:00,33.3,22.0,30.37,North,0,0.0,-999.0,63,-99.99,,,0.00,Acu-Link.com,2013-03-08 23:32:00,
2013-03-08 18:47:00,32.0,22.3,30.37,North,0,0.0,-999.0,67,-99.99,,,0.00,Acu-Link.com,2013-03-08 23:47:00,
2013-03-08 19:03:00,30.7,22.5,30.38,North,0,0.0,-999.0,71,-99.99,,,0.00,Acu-Link.com,2013-03-09 00:03:00,
2013-03-08 19:18:00,29.8,22.6,30.38,North,0,0.0,-999.0,74,-99.99,,,0.00,Acu-Link.com,2013-03-09 00:18:00,
2013-03-08 19:33:00,28.8,22.2,30.38,North,0,0.0,-999.0,76,-99.99,,,0.00,Acu-Link.com,2013-03-09 00:33:00,
2013-03-08 19:48:00,28.6,22.3,30.38,North,0,0.0,-999.0,77,-99.99,,,0.00,Acu-Link.com,2013-03-09 00:48:00,
2013-03-08 20:03:00,27.5,21.3,30.39,North,0,0.0,-999.0,77,-99.99,,,0.00,Acu-Link.com,2013-03-09 01:03:00,
2013-03-08 20:19:00,27.5,21.6,30.39,North,0,0.0,-999.0,78,-99.99,,,0.00,Acu-Link.com,2013-03-09 01:19:00,
2013-03-08 20:34:00,26.6,21.3,30.39,North,0,0.0,-999.0,80,-99.99,,,0.00,Acu-Link.com,2013-03-09 01:34:00,
2013-03-08 20:49:00,25.9,21.2,30.39,North,0,0.0,-999.0,82,-99.99,,,0.00,Acu-Link.com,2013-03-09 01:49:00,
2013-03-08 21:04:00,25.2,21.8,30.39,North,0,0.0,-999.0,87,-99.99,,,0.00,Acu-Link.com,2013-03-09 02:04:00,
2013-03-08 21:19:00,24.6,21.9,30.39,North,0,0.0,-999.0,89,-99.99,,,0.00,Acu-Link.com,2013-03-09 02:19:00,
2013-03-08 21:35:00,24.1,21.8,30.38,North,0,0.0,-999.0,91,-99.99,,,0.00,Acu-Link.com,2013-03-09 02:35:00,
2013-03-08 21:50:00,24.1,22.4,30.38,North,0,0.0,-999.0,93,-99.99,,,0.00,Acu-Link.com,2013-03-09 02:50:00,
2013-03-08 22:05:00,23.2,22.7,30.38,North,0,0.0,-999.0,98,-99.99,,,0.00,Acu-Link.com,2013-03-09 03:05:00,
2013-03-08 22:20:00,23.2,22.7,30.38,North,0,0.0,-999.0,98,-99.99,,,0.00,Acu-Link.com,2013-03-09 03:20:00,
2013-03-08 22:35:00,22.3,21.8,30.38,North,0,0.0,-999.0,98,-99.99,,,0.00,Acu-Link.com,2013-03-09 03:35:00,
2013-03-08 22:51:00,22.1,21.6,30.39,North,0,0.0,-999.0,98,-99.99,,,0.00,Acu-Link.com,2013-03-09 03:51:00,
2013-03-08 23:06:00,21.4,20.9,30.39,North,0,0.0,-999.0,98,-99.99,,,0.00,Acu-Link.com,2013-03-09 04:06:00,
2013-03-08 23:21:00,21.4,20.9,30.39,North,0,0.0,-999.0,98,-99.99,,,0.00,Acu-Link.com,2013-03-09 04:21:00,
2013-03-08 23:36:00,20.5,20.0,30.39,North,0,0.0,-999.0,98,-99.99,,,0.00,Acu-Link.com,2013-03-09 04:36:00,
2013-03-08 23:51:00,20.1,19.6,30.39,North,0,0.0,-999.0,98,-99.99,,,0.00,Acu-Link.com,2013-03-09 04:51:00,